Location: Chrząstowo
(52.0654°N, 17.1290°E)
Time: 16:28:45
(UTC+01:00)

Envisat - Pass Details

Date: 11 December 2019
Orbit: 764 x 766 km, 98.1° (Epoch: 20 January)

Event Time Altitude Azimuth Distance (km) Brightness Sun altitude
Rises 06:39:40 0° 16° (NNE) 3,248 6.2 -10.0°
Reaches altitude 10° 06:42:00 10° 19° (NNE) 2,316 5.4 -9.6°
Maximum altitude 06:47:05 68° 102° (ESE) 828 3.5 -8.9°
Drops below altitude 10° 06:52:08 10° 186° (S) 2,298 5.8 -8.2°
Sets 06:54:27 0° 189° (S) 3,220 6.5 -7.9°
